Find Starlink 11226

NORAD ID: 60907 Int'l Des: 2024-154 Owner: SPXS Country: US Constellation: starlink operational
LEOCIRCULAR

实时位置

正在加载3D地球...

关于 Starlink 11226

正在加载描述...

即将过境

Passes for default location (London). Set your location on the main map for personalized predictions.

高度历史

Loading altitude history...

两行轨道根数

1 60907U 24154E 26125.49494919 -.00006925 00000-0 -52295-4 0 9994
2 60907 53.1597 211.4277 0001524 127.2116 232.9041 15.69728176 97436
Epoch: May 5, 2026 • Age: 16 hours

当前状态

高度 365.4 km
速度 7.70 km/s
星下点 52.61°N, 8.7°E
发射日期 Aug 31, 2024
运行时间 1.6 years
类型 internet

技术详情

分类 Payload
质量 960.00 kg
干质量 910.00 kg
总质量 960.00 kg
长度 0.30 m
直径 4.10 m
跨度 29.00 m
形状 Box + pan
制造商 SPXS
平台类型 Starlink V2MD
阶段状态 In Orbit
所有者/国家 SPXS/US

Most Searched